Skip Navigation Linkswww.weather.gov 
NOAA logo - Click to go to the NOAA homepage National Weather Service   NWS logo - Click to go to the NWS homepage    
Western Region Headquarters
navigation bar decoration      
Regional Divisions
 
 
 
 
 
USA.gov is the U.S. government's official web portal to all federal, state and local government web resources and services.
spacer
Printer Friendly  |   Go Back  |  Version: Current   1   2   3   4   5   6   7   8   9   10   |  Font:  A A A  |  

HOURLY WEATHER ROUNDUP
 
 ASUS45 KREV 181210
RWRNV
NEVADA REGIONAL WEATHER ROUNDUP
NATIONAL WEATHER SERVICE RENO NV
500 AM PDT SAT APR 18 2015

NOTE: "FAIR" INDICATES FEW OR NO CLOUDS BELOW 12,000 FEET WITH NO
SIGNIFICANT WEATHER AND/OR OBSTRUCTIONS TO VISIBILITY.

NVZ001-003-004-181300-
WESTERN NEVADA

CITY SKY/WX TMP DP RH WIND PRES REMARKS
RENO PTCLDY 43 17 35 CALM 30.15S
6HR MIN TEMP: 42; 6HR MAX TEMP: 56;

CARSON CITY FAIR 32 14 47 CALM 30.16S
MINDEN FAIR 28 14 54 CALM 30.17
SLIDE MTN N/A 39 14 35 N10 N/A
PYRAMID LAKE N/A 52 N/A N/A W7 N/A
FALLON CLEAR 38 5 25 S7 30.09S
6HR MIN TEMP: 38; 6HR MAX TEMP: 48;

LOVELOCK CLEAR 31 -1 25 CALM 30.11R
6HR MIN TEMP: 28; 6HR MAX TEMP: 48; 6HR PCP: TRACE;

HAWTHORNE CLEAR 43 9 24 CALM 30.13R
$$

NVZ002-CAZ072-073-181300-
NORTHERN AND CENTRAL SIERRA

CITY SKY/WX TMP DP RH WIND PRES REMARKS
S. LAKE TAHOE CLEAR 30 23 75 S3 30.20S
6HR MIN TEMP: 30; 6HR MAX TEMP: 41;

TRUCKEE CLEAR 28 27 93 CALM 30.21S
SQUAW VLY 8000 N/A 41 23 48 N5 N/A
SUSANVILLE CLEAR N/A N/A N/A CALM N/A
BLUE CANYON CLEAR 55 17 22 CALM 30.14F
MAMMOTH LAKES FAIR 30 7 37 NW6 30.23S
BRIDGEPORT FAIR 23 10 57 CALM 30.21S
$$

NVZ030-031-036-181300-
NORTHERN NEVADA

CITY SKY/WX TMP DP RH WIND PRES REMARKS
ELKO CLEAR 32 20 61 CALM 30.12R
6HR MIN TEMP: 29; 6HR MAX TEMP: 46;

WINNEMUCCA CLEAR 26 5 40 CALM 30.12S
6HR MIN TEMP: 26; 6HR MAX TEMP: 39;

WENDOVER PTCLDY 54 21 28 NW8 30.03S
$$

NVZ035-037-181300-
CENTRAL NEVADA

CITY SKY/WX TMP DP RH WIND PRES REMARKS
ELY PTCLDY 25 11 55 S12 30.12F
6HR MIN TEMP: 25; 6HR MAX TEMP: 42;

EUREKA N/A 32 13 45 S10 30.13S
6HR MIN TEMP: 31; 6HR MAX TEMP: 39;

$$

NVZ013-014-181300-
SOUTH CENTRAL NEVADA

CITY SKY/WX TMP DP RH WIND PRES REMARKS
TONOPAH CLEAR 41 8 25 N13 30.13R
6HR MIN TEMP: 40; 6HR MAX TEMP: 53;

$$

NVZ017-020-022-181300-
SOUTHERN NEVADA

CITY SKY/WX TMP DP RH WIND PRES REMARKS
LAS VEGAS CLEAR 59 20 22 S10 29.92S
6HR MIN TEMP: 59; 6HR MAX TEMP: 70;

N. LAS VEGAS CLEAR 57 20 23 N5 29.95S
6HR MIN TEMP: 56; 6HR MAX TEMP: 68;

NELLIS AFB CLEAR 56 19 24 N6 29.95S
6HR MIN TEMP: 56; 6HR MAX TEMP: 66;

HENDERSON CLEAR 54 18 24 S8 29.98S
6HR MIN TEMP: 54; 6HR MAX TEMP: 68;

MERCURY CLEAR 49 13 23 NE3 30.01S
6HR MIN TEMP: 49; 6HR MAX TEMP: 59;

$$


Webmaster
US Dept of Commerce
National Oceanic and Atmospheric Administration
National Weather Service
Western Region Headquarters
125 South State Street
Salt Lake City, UT 84138-1102

Disclaimer
Information Quality
Credits
Glossary
Organization
Privacy Policy
Freedom of Information Act
About Us
Career Opportunities